DW3800 Weather Reports


time (UTC)temp
C
wind
direction
speed
KPH
gust
KPH
rain 1hr
cm
rain 24hr
cm
rain mn
cm
humidity
%
barometer
mb
20260903104408 21 11 1.6 3.2 0.00 0.00 0.00 95 1014.1
20260903103906 21 109 0.0 3.2 0.00 0.00 0.00 95 1014.1
20260903103401 21 103 0.0 4.8 0.00 0.00 0.00 95 1014.1
20260903102856 21 102 0.0 1.6 0.00 0.00 0.00 95 1013.8
20260903102351 21 92 0.0 1.6 0.00 0.00 0.00 95 1014.0
20260903101851 21 357 1.6 1.6 0.00 0.00 0.00 95 1013.9
20260903101346 21 95 0.0 3.2 0.00 0.00 0.00 95 1013.7
20260903100841 21 56 0.0 1.6 0.00 0.00 0.00 95 1013.7
20260903100341 21 79 1.6 1.6 0.00 0.00 0.00 95 1013.7
20260903095833 21 100 0.0 8.0 0.00 0.00 0.00 95 1013.5
20260903095332 21 102 0.0 4.8 0.00 0.00 0.00 95 1013.6
20260903094828 21 83 0.0 1.6 0.00 0.00 0.00 95 1013.6
20260903094322 21 95 0.0 0.0 0.00 0.00 0.00 94 1013.6
20260903093819 21 99 0.0 1.6 0.00 0.00 0.00 94 1013.8
20260903093313 21 354 1.6 1.6 0.00 0.00 0.00 94 1013.7
20260903092808 21 73 1.6 3.2 0.00 0.00 0.00 94 1013.5
20260903092306 21 62 0.0 1.6 0.00 0.00 0.00 94 1013.5
20260903091802 21 53 0.0 0.0 0.00 0.00 0.00 94 1013.4
20260903091255 22 72 0.0 1.6 0.00 0.00 0.00 94 1013.4
20260903090752 22 82 0.0 3.2 0.00 0.00 0.00 94 1013.5
20260903090251 22 103 0.0 1.6 0.00 0.00 0.00 93 1013.4
20260903085750 22 93 0.0 1.6 0.00 0.00 0.00 93 1013.3
20260903085249 22 306 3.2 3.2 0.00 0.00 0.00 93 1013.6
20260903084748 22 21 0.0 3.2 0.00 0.00 0.00 93 1013.5
20260903084237 22 36 1.6 3.2 0.00 0.00 0.00 93 1013.4
20260903083733 22 23 0.0 3.2 0.00 0.00 0.00 93 1013.4
20260903083227 22 96 0.0 1.6 0.00 0.00 0.00 93 1013.4
20260903082726 22 52 3.2 3.2 0.00 0.00 0.00 92 1013.6
20260903082223 22 348 1.6 1.6 0.00 0.00 0.00 92 1013.5
20260903081722 22 16 0.0 1.6 0.00 0.00 0.00 92 1013.5
20260903081218 22 75 0.0 3.2 0.00 0.00 0.00 92 1013.4
20260903080714 22 80 0.0 1.6 0.00 0.00 0.00 91 1013.4
20260903080212 22 91 0.0 1.6 0.00 0.00 0.00 91 1013.5
20260903075710 22 100 0.0 1.6 0.00 0.00 0.00 91 1013.8
20260903075206 22 76 0.0 1.6 0.00 0.00 0.00 91 1013.6
20260903074704 22 107 1.6 3.2 0.00 0.00 0.00 91 1013.7
20260903074200 22 122 0.0 0.0 0.00 0.00 0.00 90 1013.8
20260903073655 22 39 0.0 3.2 0.00 0.00 0.00 90 1013.7
20260903073150 22 10 1.6 1.6 0.00 0.00 0.00 90 1013.9
20260903072646 22 118 0.0 1.6 0.00 0.00 0.00 90 1013.9
20260903072143 22 107 0.0 4.8 0.00 0.00 0.00 90 1013.9
20260903071639 22 314 3.2 3.2 0.00 0.00 0.00 90 1014.1
20260903071134 22 116 0.0 0.0 0.00 0.00 0.00 90 1014.0
20260903070634 22 94 0.0 3.2 0.00 0.00 0.00 89 1014.0
20260903070130 22 325 1.6 3.2 0.00 0.00 0.00 89 1014.2
20260903065629 22 93 0.0 1.6 0.00 0.00 0.00 89 1014.2
20260903065124 22 305 0.0 1.6 0.00 0.00 0.00 89 1014.2
20260903064618 22 105 0.0 1.6 0.00 0.00 0.00 89 1014.0
20260903064114 22 5 3.2 3.2 0.00 0.00 0.00 89 1014.2
20260903063609 22 11 1.6 3.2 0.00 0.00 0.00 89 1014.0
20260903063104 22 89 1.6 1.6 0.00 0.00 0.00 89 1014.3
20260903062559 22 74 0.0 0.0 0.00 0.00 0.00 88 1014.1
20260903062054 23 106 0.0 1.6 0.00 0.00 0.00 88 1014.1
20260903061550 23 102 0.0 0.0 0.00 0.00 0.00 88 1014.3
20260903061049 23 92 0.0 1.6 0.00 0.00 0.00 87 1014.4
20260903060549 23 101 0.0 0.0 0.00 0.00 0.00 87 1014.2
20260903060044 23 92 0.0 1.6 0.00 0.00 0.00 87 1014.3
20260903055541 23 104 0.0 0.0 0.00 0.00 0.00 87 1014.3
20260903055040 23 38 0.0 1.6 0.00 0.00 0.00 87 1014.2
20260903054536 23 106 0.0 1.6 0.00 0.00 0.00 86 1014.1
20260903054031 23 76 0.0 1.6 0.00 0.00 0.00 86 1014.0
20260903053526 23 104 0.0 0.0 0.00 0.00 0.00 86 1014.3
20260903053023 23 66 1.6 4.8 0.00 0.00 0.00 86 1014.1
20260903052518 23 51 1.6 1.6 0.00 0.00 0.00 85 1014.1
20260903052014 23 87 0.0 1.6 0.00 0.00 0.00 85 1014.1
20260903051508 23 273 1.6 1.6 0.00 0.00 0.00 85 1014.4
20260903051004 23 43 1.6 3.2 0.00 0.00 0.00 84 1014.2
20260903050503 24 114 0.0 3.2 0.00 0.00 0.00 84 1014.3
20260903045957 24 39 1.6 3.2 0.00 0.15 0.15 84 1014.4
20260903045453 24 51 0.0 1.6 0.00 0.15 0.15 84 1014.4
20260903044949 24 68 0.0 1.6 0.00 0.15 0.15 83 1014.6
20260903044445 24 347 1.6 3.2 0.00 0.15 0.15 83 1014.4
20260903043941 24 49 1.6 3.2 0.00 0.15 0.15 83 1014.4
20260903043437 24 115 0.0 1.6 0.00 0.15 0.15 83 1014.5
20260903042935 24 108 0.0 1.6 0.00 0.15 0.15 83 1014.4
20260903042430 24 116 0.0 1.6 0.00 0.15 0.15 83 1014.4
20260903041926 24 345 1.6 3.2 0.00 0.15 0.15 83 1014.4
20260903041422 24 101 0.0 3.2 0.00 0.15 0.15 83 1014.4
20260903040918 25 110 0.0 1.6 0.00 0.15 0.15 82 1014.4
20260903040416 25 136 1.6 1.6 0.00 0.15 0.15 82 1014.5
20260903035913 25 65 0.0 3.2 0.00 0.15 0.15 81 1014.5
20260903035408 25 222 1.6 4.8 0.00 0.15 0.15 81 1014.7
20260903034903 25 122 0.0 3.2 0.00 0.15 0.15 81 1014.7
20260903034358 25 113 0.0 4.8 0.00 0.15 0.15 82 1014.7
20260903033853 25 3 3.2 4.8 0.00 0.15 0.15 82 1014.7
20260903033348 25 20 1.6 3.2 0.00 0.15 0.15 82 1014.7
20260903032848 25 125 0.0 3.2 0.00 0.15 0.15 82 1014.8
20260903032344 25 111 0.0 3.2 0.00 0.15 0.15 82 1014.8
20260903031839 25 95 0.0 3.2 0.00 0.15 0.15 82 1014.7
20260903031338 25 112 0.0 1.6 0.00 0.15 0.15 82 1014.7
20260903030834 25 80 0.0 4.8 0.00 0.15 0.15 82 1014.8
20260903030330 25 58 1.6 1.6 0.00 0.15 0.15 82 1014.7
20260903025826 25 122 0.0 3.2 0.00 0.15 0.15 81 1014.9
20260903025321 25 148 0.0 1.6 0.00 0.15 0.15 81 1014.7
20260903024821 25 90 1.6 3.2 0.00 0.15 0.15 80 1014.3
20260903024320 25 55 1.6 3.2 0.00 0.15 0.15 80 1014.6
20260903023816 25 15 0.0 1.6 0.00 0.15 0.15 80 1014.6
20260903023311 25 110 0.0 1.6 0.00 0.15 0.15 78 1014.6
20260903022806 25 126 0.0 3.2 0.00 0.15 0.15 78 1014.4
20260903022306 25 159 0.0 1.6 0.00 0.15 0.15 77 1014.5
20260903021759 25 275 0.0 1.6 0.00 0.15 0.15 77 1014.6
20260903021255 26 136 0.0 1.6 0.00 0.15 0.15 77 1014.6
20260903020754 26 257 0.0 3.2 0.00 0.15 0.15 75 1014.5
20260903020249 26 254 1.6 1.6 0.00 0.15 0.15 75 1014.5
20260903015744 25 291 1.6 1.6 0.00 0.15 0.15 76 1014.5
20260903015240 26 302 1.6 1.6 0.00 0.15 0.15 76 1014.4
20260903014735 26 333 1.6 1.6 0.00 0.15 0.15 77 1014.4
20260903014229 26 234 0.0 0.0 0.00 0.15 0.15 77 1014.2
20260903013724 26 152 0.0 0.0 0.00 0.15 0.15 76 1013.9
20260903013223 26 233 0.0 0.0 0.00 0.15 0.15 76 1014.1
20260903012722 26 208 0.0 0.0 0.00 0.15 0.15 75 1014.1
20260903012221 26 209 0.0 1.6 0.00 0.15 0.15 75 1014.1
20260903011716 26 229 0.0 0.0 0.00 0.15 0.15 74 1014.0
20260903011216 26 216 0.0 0.0 0.00 0.15 0.15 74 1013.9
20260903010712 26 215 0.0 0.0 0.00 0.15 0.15 73 1014.1
20260903010211 27 197 0.0 0.0 0.00 0.15 0.15 73 1013.8
20260903005710 27 251 0.0 0.0 0.00 0.15 0.15 72 1014.0
20260903005205 27 212 0.0 0.0 0.00 0.15 0.15 71 1013.8
20260903004701 27 106 0.0 0.0 0.00 0.15 0.15 71 1013.9
20260903004155 27 181 0.0 0.0 0.00 0.15 0.15 70 1013.9
20260903003651 28 209 0.0 0.0 0.00 0.15 0.15 68 1014.2
20260903003147 28 184 0.0 0.0 0.00 0.15 0.15 67 1013.6
20260903002642 29 178 0.0 0.0 0.00 0.15 0.15 65 1014.0
20260903002136 30 198 0.0 0.0 0.00 0.15 0.15 64 1013.8
20260903001631 30 185 0.0 0.0 0.00 0.15 0.15 62 1013.8
20260903001125 30 149 0.0 1.6 0.00 0.15 0.15 63 1013.7
20260903000621 30 165 0.0 1.6 0.00 0.15 0.15 62 1013.8
20260903000120 30 136 1.6 1.6 0.00 0.15 0.15 61 1013.8
20260902235618 30 194 0.0 1.6 0.00 0.15 0.15 60 1013.7
20260902235114 30 175 0.0 0.0 0.00 0.15 0.15 61 1013.7
20260902234608 30 162 0.0 1.6 0.00 0.15 0.15 60 1014.1
20260902234106 30 191 0.0 1.6 0.00 0.15 0.15 61 1013.9
20260902233602 30 161 3.2 3.2 0.00 0.15 0.15 61 1014.1
20260902233056 30 190 3.2 4.8 0.00 0.15 0.15 61 1014.0
20260902232555 30 117 0.0 1.6 0.00 0.15 0.15 61 1013.8
20260902232050 30 125 1.6 1.6 0.00 0.15 0.15 61 1014.0
20260902231544 30 145 1.6 3.2 0.00 0.15 0.15 61 1013.9
20260902231044 30 85 0.0 4.8 0.00 0.15 0.15 61 1013.9
20260902230539 30 140 0.0 1.6 0.00 0.15 0.15 60 1013.7
20260902230038 30 62 1.6 4.8 0.00 0.15 0.15 60 1014.0
20260902225534 30 187 0.0 1.6 0.00 0.15 0.15 59 1014.0
20260902225033 30 123 1.6 1.6 0.00 0.15 0.15 59 1014.2
20260902224532 30 106 0.0 1.6 0.00 0.15 0.15 58 1013.8
20260902224028 30 187 0.0 4.8 0.00 0.15 0.15 59 1013.9
20260902223524 30 174 1.6 4.8 0.00 0.15 0.15 59 1014.0
20260902223023 30 193 0.0 0.0 0.00 0.15 0.15 60 1014.0
20260902222522 30 186 3.2 4.8 0.00 0.15 0.15 58 1014.1
20260902222020 30 170 1.6 3.2 0.00 0.15 0.15 58 1014.3
20260902221515 30 184 1.6 4.8 0.00 0.15 0.15 58 1014.0
20260902221010 30 167 1.6 3.2 0.00 0.15 0.15 57 1014.0
20260902220505 30 173 3.2 3.2 0.00 0.15 0.15 58 1014.1
20260902220000 30 164 1.6 4.8 0.00 0.15 0.15 58 1014.1
20260902215456 30 195 0.0 1.6 0.00 0.15 0.15 58 1014.3
20260902214952 30 202 0.0 3.2 0.00 0.15 0.15 58 1014.1
20260902214450 30 175 0.0 3.2 0.00 0.15 0.15 59 1013.9
20260902213944 30 232 3.2 4.8 0.00 0.15 0.15 58 1014.3
20260902213441 30 169 1.6 4.8 0.00 0.15 0.15 59 1014.2
20260902212939 30 183 3.2 4.8 0.00 0.15 0.15 58 1014.1
20260902212436 30 167 3.2 3.2 0.00 0.15 0.15 58 1013.9
20260902211932 31 274 3.2 8.0 0.00 0.15 0.15 56 1014.3
20260902211427 31 234 1.6 4.8 0.00 0.15 0.15 57 1014.2
20260902210923 30 219 1.6 3.2 0.00 0.15 0.15 59 1014.3
20260902210423 30 358 4.8 4.8 0.00 0.15 0.15 58 1014.1
20260902205920 30 203 0.0 4.8 0.00 0.15 0.15 57 1014.3
20260902205416 30 186 0.0 1.6 0.00 0.15 0.15 59 1014.3
20260902204911 30 232 3.2 8.0 0.00 0.15 0.15 60 1014.4
20260902204410 30 64 1.6 8.0 0.00 0.15 0.15 59 1014.3
20260902203901 30 220 0.0 3.2 0.00 0.15 0.15 58 1014.2
20260902203356 30 142 0.0 3.2 0.00 0.15 0.15 58 1014.3
20260902202850 30 188 0.0 4.8 0.00 0.15 0.15 59 1014.4
20260902202346 30 2 1.6 3.2 0.00 0.15 0.15 58 1014.2
20260902201842 30 334 3.2 4.8 0.00 0.15 0.15 60 1014.6
20260902201342 30 143 3.2 3.2 0.00 0.15 0.15 59 1014.6
20260902200837 30 352 4.8 9.7 0.00 0.15 0.15 60 1014.7
20260902200332 30 124 1.6 4.8 0.00 0.15 0.15 61 1014.9
20260902195828 29 146 0.0 3.2 0.00 0.15 0.15 62 1014.8
20260902195327 29 254 4.8 8.0 0.00 0.15 0.15 61 1015.0
20260902194822 30 81 0.0 1.6 0.00 0.15 0.15 60 1015.0
20260902194316 29 128 1.6 4.8 0.00 0.15 0.15 61 1015.2
20260902193812 29 109 1.6 3.2 0.00 0.15 0.15 62 1015.2
20260902193308 30 137 0.0 3.2 0.00 0.15 0.15 62 1015.4
20260902192807 30 149 3.2 4.8 0.00 0.15 0.15 61 1015.1
20260902192307 28 112 0.0 4.8 0.00 0.15 0.15 62 1015.2
20260902191805 28 173 1.6 3.2 0.00 0.15 0.15 62 1015.1
20260902191301 28 144 1.6 4.8 0.00 0.15 0.15 63 1015.1
20260902190756 28 157 0.0 3.2 0.00 0.15 0.15 61 1015.4
20260902190255 28 327 3.2 4.8 0.00 0.15 0.15 62 1015.0
20260902185751 28 13 1.6 4.8 0.00 0.15 0.15 63 1015.2
20260902185246 28 172 1.6 4.8 0.00 0.15 0.15 62 1015.2
20260902184742 28 137 3.2 4.8 0.00 0.15 0.15 63 1015.1
20260902184243 28 175 3.2 4.8 0.00 0.15 0.15 63 1015.1
20260902183738 28 157 0.0 1.6 0.00 0.15 0.15 64 1015.2
20260902183234 28 12 3.2 3.2 0.00 0.15 0.15 62 1015.2
20260902182730 28 51 1.6 3.2 0.00 0.15 0.15 63 1015.1
20260902182227 27 140 0.0 3.2 0.00 0.15 0.15 67 1015.5
20260902181723 28 141 0.0 3.2 0.00 0.15 0.15 65 1015.4
20260902181222 27 158 0.0 8.0 0.00 0.15 0.15 67 1015.5
20260902180717 27 35 3.2 4.8 0.00 0.15 0.15 66 1015.9
20260902180213 27 148 0.0 1.6 0.00 0.15 0.15 68 1015.8
20260902175708 27 92 3.2 4.8 0.00 0.15 0.15 68 1016.1
20260902175204 27 10 3.2 3.2 0.00 0.15 0.15 67 1016.1
20260902174659 27 144 1.6 8.0 0.00 0.15 0.15 68 1016.3
20260902174155 27 131 3.2 3.2 0.00 0.15 0.15 69 1016.2
20260902173650 27 116 0.0 4.8 0.00 0.15 0.15 68 1016.3
20260902173145 26 85 0.0 3.2 0.00 0.15 0.15 68 1016.6
20260902172639 26 141 3.2 4.8 0.00 0.15 0.15 69 1016.6
20260902172138 26 151 1.6 8.0 0.00 0.15 0.15 71 1016.8
20260902171634 26 204 1.6 4.8 0.00 0.15 0.15 70 1016.8
20260902171130 26 142 4.8 8.0 0.00 0.15 0.15 69 1016.6
20260902170625 25 137 1.6 4.8 0.00 0.15 0.15 72 1016.4
20260902170121 26 105 0.0 8.0 0.00 0.15 0.15 72 1016.2
20260902165621 26 89 0.0 4.8 0.00 0.15 0.15 71 1016.4
20260902165115 25 183 3.2 3.2 0.00 0.15 0.15 71 1016.3
20260902164610 26 135 3.2 3.2 0.00 0.15 0.15 72 1016.4
20260902164109 26 118 0.0 3.2 0.00 0.15 0.15 70 1016.4
20260902163605 25 101 1.6 1.6 0.00 0.15 0.15 72 1016.3
20260902163103 25 134 0.0 1.6 0.00 0.15 0.15 72 1016.3
20260902162603 25 159 1.6 3.2 0.00 0.15 0.15 73 1016.4
20260902162057 25 99 1.6 3.2 0.00 0.15 0.15 73 1016.5
20260902161552 25 10 0.0 3.2 0.00 0.15 0.15 74 1016.5
20260902161048 25 122 3.2 4.8 0.00 0.15 0.15 73 1016.2
20260902160544 25 167 4.8 4.8 0.00 0.15 0.15 73 1016.1
20260902160039 25 122 1.6 3.2 0.00 0.15 0.15 74 1016.1
20260902155532 24 216 6.4 9.7 0.00 0.15 0.15 75 1015.9
20260902155031 23 119 0.0 1.6 0.00 0.15 0.15 77 1016.0
20260902154527 24 89 0.0 4.8 0.00 0.15 0.15 77 1015.9
20260902154021 24 142 1.6 3.2 0.00 0.15 0.15 76 1016.3
20260902153520 23 100 3.2 4.8 0.00 0.15 0.15 77 1016.4
20260902153016 23 77 0.0 3.2 0.00 0.15 0.15 77 1016.1
20260902152512 23 87 0.0 3.2 0.00 0.15 0.15 77 1016.2
20260902152007 23 114 3.2 3.2 0.00 0.15 0.15 78 1016.1
20260902151503 23 113 3.2 3.2 0.00 0.15 0.15 79 1016.2
20260902150956 23 108 0.0 1.6 0.00 0.15 0.15 80 1016.0
20260902150452 23 107 1.6 3.2 0.00 0.15 0.15 80 1015.9
20260902145952 22 102 0.0 3.2 0.00 0.15 0.15 81 1016.1
20260902145448 22 117 1.6 3.2 0.00 0.15 0.15 82 1015.9
20260902144947 22 101 1.6 1.6 0.00 0.15 0.15 83 1016.1
20260902144444 22 71 0.0 3.2 0.00 0.15 0.15 82 1015.9
20260902143938 22 82 0.0 1.6 0.00 0.15 0.15 82 1016.0
20260902143434 22 84 0.0 1.6 0.00 0.15 0.15 83 1016.1
20260902142928 21 111 0.0 1.6 0.00 0.15 0.15 85 1016.1
20260902142425 21 144 1.6 3.2 0.00 0.15 0.15 85 1016.2
20260902141920 21 98 1.6 3.2 0.00 0.15 0.15 85 1016.2
20260902141415 22 97 3.2 3.2 0.00 0.15 0.15 84 1016.2
20260902140914 21 78 0.0 1.6 0.00 0.15 0.15 86 1016.3
20260902140410 21 325 1.6 1.6 0.00 0.15 0.15 87 1016.2
20260902135909 20 88 0.0 1.6 0.00 0.15 0.15 88 1016.2
20260902135406 20 87 0.0 4.8 0.00 0.15 0.15 88 1016.3
20260902134904 20 104 0.0 1.6 0.00 0.15 0.15 88 1016.2
20260902134400 20 20 1.6 1.6 0.00 0.15 0.15 89 1016.1
20260902133854 20 72 0.0 3.2 0.00 0.15 0.15 91 1016.2
20260902133349 20 97 0.0 0.0 0.00 0.15 0.15 91 1016.5
20260902132844 19 92 0.0 0.0 0.00 0.15 0.15 93 1016.4
20260902132339 19 58 0.0 1.6 0.00 0.15 0.15 94 1016.2
20260902131835 18 15 0.0 3.2 0.00 0.15 0.15 95 1016.1
20260902131332 18 87 0.0 1.6 0.00 0.15 0.15 96 1016.1
20260902130830 18 62 1.6 3.2 0.00 0.15 0.15 96 1016.2
20260902130327 18 88 1.6 1.6 0.00 0.15 0.15 96 1016.2
20260902125821 18 101 0.0 8.0 0.00 0.15 0.15 96 1016.1
20260902125317 18 125 0.0 1.6 0.00 0.15 0.15 97 1016.4
20260902124813 17 80 0.0 1.6 0.00 0.15 0.15 97 1016.4
20260902124309 17 126 0.0 1.6 0.00 0.15 0.15 97 1016.1
20260902123804 17 137 0.0 0.0 0.00 0.15 0.15 97 1016.3
20260902123300 17 56 0.0 1.6 0.00 0.15 0.15 97 1016.2
20260902122759 17 1 3.2 4.8 0.00 0.15 0.15 97 1016.1
20260902122255 17 355 0.0 3.2 0.00 0.15 0.15 97 1016.2
20260902121755 17 75 0.0 4.8 0.00 0.15 0.15 97 1016.4
20260902121250 17 17 1.6 3.2 0.00 0.15 0.15 97 1016.4
20260902120745 17 112 0.0 3.2 0.00 0.15 0.15 97 1016.4
20260902120241 17 90 0.0 1.6 0.00 0.15 0.15 97 1016.1
20260902115736 17 5 1.6 8.0 0.00 0.15 0.15 97 1016.3
20260902115232 17 35 1.6 1.6 0.00 0.15 0.15 97 1016.3
20260902114728 17 35 0.0 4.8 0.00 0.15 0.15 97 1016.4
20260902114224 17 135 0.0 0.0 0.00 0.15 0.15 97 1016.4
20260902113723 17 133 0.0 1.6 0.00 0.15 0.15 97 1016.5
20260902113219 17 91 0.0 4.8 0.00 0.15 0.15 97 1017.0
20260902112713 17 103 0.0 3.2 0.00 0.15 0.15 97 1017.0
20260902112210 17 144 1.6 3.2 0.00 0.15 0.15 97 1016.8
20260902111705 17 127 0.0 1.6 0.00 0.15 0.15 97 1017.0
20260902111202 17 122 0.0 4.8 0.00 0.15 0.15 98 1017.1
20260902110657 17 99 0.0 3.2 0.00 0.15 0.15 98 1017.2
20260902110153 17 149 0.0 4.8 0.00 0.15 0.15 98 1016.9
20260902105652 17 161 1.6 3.2 0.00 0.15 0.15 98 1017.0
20260902105148 17 106 0.0 8.0 0.00 0.15 0.15 98 1016.8